This is the latest recevied weather packets stored in our database for station/object OE6ACM-14. If no packets are shown the sender has not sent any weather packets the latest 10 day(s).
| Time | Temp. | Humidity | Pressure | Rain* | Wind** | Luminosity | Snow |
|---|---|---|---|---|---|---|---|
| 1777985553 | 23.33° C | 28% | 919.7 hPa | - | - | - | - |
| 1777985253 | 22.78° C | 30% | 919.8 hPa | - | - | - | - |
| 1777984953 | 22.78° C | 29% | 919.9 hPa | - | - | - | - |
| 1777984653 | 22.22° C | 30% | 920 hPa | - | - | - | - |
| 1777984353 | 22.78° C | 29% | 920 hPa | - | - | - | - |
| 1777983726 | 24.44° C | 27% | 920 hPa | - | - | - | - |
| 1777983425 | 25° C | 27% | 919.9 hPa | - | - | - | - |
| 1777983125 | 24.44° C | 27% | 920 hPa | - | - | - | - |
| 1777982825 | 24.44° C | 29% | 920 hPa | - | - | - | - |
| 1777982525 | 25° C | 28% | 920 hPa | - | - | - | - |
| 1777982225 | 25.56° C | 26% | 920 hPa | - | - | - | - |
| 1777981925 | 25.56° C | 26% | 919.9 hPa | - | - | - | - |
| 1777981625 | 24.44° C | 26% | 919.8 hPa | - | - | - | - |
| 1777981325 | 24.44° C | 28% | 919.8 hPa | - | - | - | - |
| 1777981025 | 25° C | 26% | 919.9 hPa | - | - | - | - |
| 1777980725 | 26.11° C | 26% | 919.7 hPa | - | - | - | - |
| 1777980425 | 26.11° C | 24% | 919.7 hPa | - | - | - | - |
| 1777980125 | 26.11° C | 25% | 919.8 hPa | - | - | - | - |
| 1777979825 | 26.11° C | 26% | 919.7 hPa | - | - | - | - |
| 1777979525 | 26.11° C | 24% | 919.7 hPa | - | - | - | - |
| 1777979225 | 25.56° C | 25% | 919.7 hPa | - | - | - | - |
| 1777978925 | 25° C | 26% | 919.8 hPa | - | - | - | - |
| 1777978625 | 24.44° C | 25% | 919.9 hPa | - | - | - | - |
| 1777978325 | 25° C | 24% | 919.9 hPa | - | - | - | - |
| 1777978025 | 25.56° C | 24% | 919.9 hPa | - | - | - | - |
* Rain since midnight (hover to see other rain measurements)
** Current wind speed in m/s (hover to see current wind gust speed)